Theta_e
321 330 332 324 323 318 314 314 312 313 315 317 319 321 323 324 327 323 313 309 307 312 320 316 314 314 311 311 309 308 308 308 309 309 308 309 313 319 322 322 322 323 317 308 307 309 307 308 307 306 306 306 306 305 305 305 304 304 303 304 305 304 304 304 303 303 303 303 303 303 303 302 302 302 302 302 303 303 303 303 303 302 302 301 301 300
324 328 321 318 320 316 312 313 312 311 314 318 319 323 325 322 327 322 310 311 309 311 321 316 313 315 312 312 310 307 308 310 312 312 312 311 312 317 322 323 323 321 314 308 308 308 307 308 307 307 307 306 306 306 305 306 305 305 304 304 305 305 305 304 304 304 303 303 303 303 303 302 302 302 302 302 303 303 303 303 303 302 302 302 301 301
328 321 313 313 315 311 312 314 313 313 317 322 321 321 322 320 322 319 311 314 311 310 323 319 313 315 314 315 313 308 310 313 314 312 314 315 314 316 319 321 324 321 315 312 310 307 307 308 307 307 307 306 306 306 306 306 306 306 305 305 305 305 305 304 304 304 303 304 303 303 303 303 303 302 302 302 302 302 302 303 302 302 302 302 302 301
321 315 313 311 310 310 313 315 313 315 319 320 320 319 321 317 316 319 317 315 312 310 318 317 314 320 324 322 316 310 310 313 314 313 315 317 317 318 317 316 319 322 319 316 313 308 306 307 308 307 307 306 306 306 307 307 307 307 306 306 305 305 305 304 304 303 303 303 303 303 303 303 303 302 302 302 302 302 302 302 302 302 302 302 301 301
315 310 310 311 312 312 313 317 318 320 320 319 320 320 319 315 312 316 316 313 315 312 311 316 321 326 331 332 324 318 316 314 314 315 314 315 318 317 316 315 316 319 321 320 318 311 305 306 308 307 307 307 307 307 307 307 307 307 306 306 306 305 305 304 303 303 303 303 303 303 303 303 303 302 302 302 302 302 302 302 302 302 302 302 302 302
311 306 308 313 316 315 315 318 318 318 322 323 319 314 311 312 311 314 315 316 326 321 311 314 318 323 334 331 324 325 324 319 316 316 316 318 322 319 317 319 318 317 319 320 318 311 305 306 307 307 307 307 307 307 307 307 307 306 307 306 306 306 305 304 303 303 303 303 303 303 303 303 303 302 302 302 302 302 302 302 302 302 302 302 301 302
309 307 310 314 316 318 319 317 311 312 324 322 314 309 309 310 311 314 316 316 325 321 312 313 311 319 336 328 322 328 326 325 326 325 326 325 326 324 320 320 320 318 319 319 315 310 306 307 307 306 308 307 307 308 307 307 307 306 306 306 305 305 305 304 304 303 303 303 303 303 303 303 303 302 302 303 302 302 302 302 302 302 302 302 301 301
311 311 313 314 317 319 319 318 311 310 320 317 311 309 310 311 311 313 314 316 320 316 318 325 315 312 331 330 326 326 320 324 331 328 331 329 327 328 324 322 322 323 323 321 323 317 307 306 308 307 308 308 307 308 308 307 307 307 306 306 306 305 305 305 304 304 303 303 303 302 303 303 303 302 302 303 302 302 302 302 302 302 302 302 302 302
310 314 314 314 318 318 315 313 310 309 314 314 308 308 309 309 311 312 314 319 319 314 320 335 319 311 335 341 329 321 316 320 321 319 322 324 325 329 328 326 324 324 323 323 326 319 308 307 309 309 308 308 308 308 307 307 307 307 307 306 306 306 306 305 304 305 304 303 303 303 303 303 303 303 303 303 302 302 302 302 302 302 302 302 302 302
308 311 310 310 313 313 312 309 308 310 312 310 306 308 310 310 312 312 313 317 321 319 318 326 316 311 335 347 328 315 316 320 317 316 320 320 323 327 328 329 328 326 324 324 319 308 305 308 308 308 308 308 308 307 307 307 307 307 307 307 307 307 307 306 306 305 305 305 304 304 303 303 303 303 303 303 303 303 302 302 302 302 302 302 302 302
309 308 307 309 310 309 308 306 306 307 308 308 309 313 315 315 314 312 314 317 321 325 321 318 314 311 324 338 330 318 319 323 320 317 318 319 318 318 321 326 328 326 324 325 318 305 304 308 308 308 308 308 308 308 308 308 308 308 308 308 308 308 308 307 307 306 305 305 305 305 304 304 304 304 304 304 304 304 303 303 303 302 302 302 302 302
314 311 309 309 308 306 307 308 306 305 307 309 314 316 316 321 320 318 325 323 319 325 322 316 314 312 316 326 326 323 322 323 322 318 317 317 314 314 317 319 321 322 321 322 320 314 308 307 308 309 308 309 309 308 309 308 308 308 308 308 308 308 308 307 306 305 305 305 305 305 305 304 304 304 304 304 304 304 304 304 303 303 303 303 302 302
319 315 311 309 307 306 309 313 311 310 310 311 318 323 323 330 329 325 333 327 321 325 317 312 313 313 320 325 320 322 321 318 320 320 319 318 316 316 316 315 318 322 324 320 320 322 312 305 307 309 308 308 307 307 308 307 307 307 306 307 307 306 306 305 305 304 304 304 304 305 305 305 305 305 304 305 305 304 304 304 304 304 303 303 303 303
318 314 314 313 311 306 307 315 317 316 315 314 319 324 327 329 324 325 332 322 316 322 315 310 313 318 325 323 318 321 320 317 318 318 321 322 320 318 315 317 321 322 322 320 319 322 314 305 306 307 306 307 306 306 306 305 306 306 305 305 305 305 304 304 304 304 304 304 304 304 304 304 304 304 304 304 304 304 304 304 304 304 304 303 303 303
317 314 316 315 312 308 306 310 310 311 314 315 313 317 325 325 319 321 327 321 316 323 322 312 314 326 325 314 315 318 315 314 314 315 318 319 318 318 315 317 321 319 319 321 320 317 310 306 307 307 305 305 305 305 305 305 305 305 305 305 304 304 304 304 304 303 303 303 303 304 303 304 304 304 304 304 304 304 304 304 304 304 304 304 303 303
317 314 313 309 307 306 309 308 305 310 316 314 310 316 321 320 323 322 316 317 319 321 327 320 319 332 323 312 318 318 313 312 311 313 314 313 315 318 316 316 319 319 319 320 321 316 308 305 306 306 305 305 305 305 305 305 305 304 304 304 304 304 303 303 303 303 303 302 302 303 302 303 303 303 303 303 303 303 303 304 304 304 304 303 304 303
315 316 311 309 308 305 306 306 304 310 313 312 312 315 312 310 320 323 312 314 316 318 328 323 321 331 322 315 322 318 312 313 311 312 313 313 318 318 316 317 319 319 317 317 318 315 308 305 306 306 306 305 305 305 305 304 304 304 304 304 303 304 303 303 303 302 302 301 301 301 301 301 301 301 302 302 302 302 302 303 303 303 303 303 303 303
311 315 312 310 312 306 303 305 306 306 308 313 314 311 309 309 314 319 320 325 323 323 331 324 320 330 326 322 323 317 312 314 313 313 314 316 319 317 316 318 319 318 318 317 316 312 305 305 306 306 305 306 305 305 305 305 305 304 304 304 303 304 303 303 303 302 301 300 300 300 300 300 300 300 301 301 301 301 301 302 302 302 302 302 302 303
309 315 315 309 312 310 304 306 309 308 304 310 313 307 310 315 316 319 322 327 323 320 328 330 325 323 326 330 325 315 315 317 314 314 316 317 317 317 317 317 318 318 318 318 317 314 308 305 306 307 306 306 306 305 305 305 305 304 304 304 303 303 304 303 303 301 300 300 299 300 299 299 300 300 300 300 300 300 300 300 301 301 301 301 301 301
309 312 315 311 308 309 308 309 315 316 306 307 310 307 309 316 319 320 317 318 324 322 324 332 331 325 330 338 330 318 319 318 314 316 318 319 319 321 321 320 320 320 319 316 317 317 309 304 306 307 306 307 306 306 306 305 305 304 303 302 302 302 302 301 301 300 299 299 299 299 299 299 299 299 299 299 299 299 299 299 299 299 299 299 299 300
310 309 314 316 308 309 312 310 317 323 313 311 316 313 313 313 311 314 313 314 323 327 325 326 331 338 339 334 327 322 321 316 315 319 320 320 322 323 324 324 323 322 321 318 320 318 308 304 307 307 306 306 305 305 305 304 303 302 301 301 300 300 299 299 299 299 299 299 299 299 299 299 299 299 299 299 299 299 298 298 298 298 298 298 298 298
312 312 317 321 315 316 318 307 306 312 309 311 317 316 319 317 315 320 318 314 315 321 326 323 323 336 335 323 320 319 316 314 315 318 320 320 322 322 323 324 323 322 321 320 322 317 307 305 307 306 306 305 304 305 304 302 302 301 300 299 299 299 299 299 299 299 299 299 299 299 298 298 298 298 298 298 298 298 298 298 298 298 298 297 297 297
311 317 318 321 319 315 311 303 301 303 301 304 307 309 314 316 321 329 323 318 315 311 316 317 317 328 328 319 320 318 312 312 314 319 321 320 321 321 320 320 321 320 318 318 318 309 304 305 306 306 306 304 303 303 301 301 301 300 299 299 299 299 298 299 299 298 299 298 298 298 298 298 298 297 298 297 297 297 297 297 297 297 297 297 297 297
308 315 315 322 328 317 308 303 301 298 299 305 307 306 310 311 318 328 324 320 319 314 316 317 318 330 328 319 321 320 314 313 315 320 322 320 323 324 324 325 324 320 317 318 316 305 302 305 306 305 304 302 301 300 300 300 299 299 299 298 299 298 298 298 298 298 298 298 297 298 298 298 297 297 297 296 296 296 296 296 296 296 296 296 296 296
307 315 317 321 331 328 320 314 310 305 304 311 313 309 309 310 313 319 316 314 317 320 322 321 325 334 327 319 320 317 315 315 314 316 318 319 323 326 330 332 327 322 319 318 317 310 305 304 303 303 302 300 300 299 299 299 298 298 298 298 298 298 297 298 298 298 298 298 297 297 296 296 296 295 295 295 294 295 295 295 295 295 295 295 295 295
308 313 317 320 321 319 321 322 318 316 314 313 313 310 309 310 312 315 316 315 319 321 318 320 329 332 322 318 317 313 314 316 316 316 314 316 319 321 326 328 325 322 320 318 317 314 309 304 301 301 300 299 299 299 298 298 298 298 298 297 297 297 297 297 297 297 297 296 295 294 294 293 293 293 293 293 293 293 293 293 293 293 292 292 292 292
311 312 314 323 325 318 325 328 317 312 315 314 314 314 312 311 312 317 320 319 321 320 316 318 323 322 317 315 314 314 317 320 321 319 314 314 316 318 322 325 324 322 319 318 316 313 309 305 300 298 299 298 298 298 297 297 297 297 296 296 296 296 296 296 295 294 293 292 292 291 291 291 291 292 291 291 291 291 291 291 291 291 290 290 290 290
313 314 312 317 319 318 324 326 315 310 314 316 315 316 316 313 311 314 317 318 319 318 317 318 318 316 314 313 313 316 319 318 318 316 312 312 313 314 317 320 320 317 316 317 316 311 309 306 299 296 298 298 297 297 297 297 296 296 296 295 295 295 294 292 291 290 290 289 289 290 290 290 290 290 290 290 290 290 290 290 290 289 289 288 289 289
315 315 312 311 314 318 317 317 314 312 313 315 314 314 315 314 313 312 312 314 316 315 314 318 319 317 313 312 312 314 314 313 311 310 309 310 311 312 315 316 316 315 314 316 313 308 307 303 298 296 297 296 296 296 296 295 295 295 295 293 292 291 290 289 288 288 287 288 288 288 289 289 289 290 290 289 289 289 289 289 289 288 287 287 287 288
311 316 313 308 310 317 315 312 311 310 311 312 311 311 311 313 313 311 311 311 312 314 313 314 316 314 310 309 308 309 311 310 309 309 311 312 315 315 316 317 318 315 312 312 309 305 303 299 295 295 295 295 295 295 294 294 293 293 292 290 289 287 287 286 286 286 286 286 286 287 287 287 288 289 289 289 288 288 288 289 288 287 285 285 286 286
304 314 314 307 310 318 314 309 308 308 310 310 310 310 309 310 310 308 308 309 309 311 311 310 312 311 308 309 311 311 311 310 310 314 317 319 320 318 319 321 319 314 310 308 305 303 300 296 293 294 294 294 294 294 293 292 291 290 289 287 286 285 284 284 284 284 284 285 285 285 285 285 286 287 288 288 287 287 287 288 288 287 285 284 284 285
303 309 309 305 312 319 311 306 309 310 309 310 312 311 308 308 309 308 307 308 308 309 309 308 310 309 308 310 312 312 313 314 317 322 322 321 322 320 319 320 317 311 307 304 301 299 298 295 293 293 293 293 293 292 292 291 289 287 286 284 283 283 283 283 282 283 283 283 283 283 283 283 283 285 286 286 285 284 285 287 287 286 284 283 283 283
305 310 312 308 312 318 309 305 312 312 310 313 315 313 310 309 308 307 307 307 307 308 309 310 310 310 310 311 310 311 315 316 317 318 315 312 315 318 317 313 309 305 302 300 298 296 295 293 292 292 292 292 292 291 290 288 286 284 283 282 282 282 282 281 281 281 281 282 282 282 281 281 281 282 283 283 283 282 283 284 286 286 284 282 282 282
305 311 314 309 310 317 312 307 310 310 311 316 317 314 314 313 310 308 309 309 307 307 309 309 310 310 311 311 311 312 313 311 308 307 305 303 306 311 310 305 301 299 297 296 295 293 293 292 292 292 292 291 290 289 287 285 283 282 281 281 281 281 280 280 280 280 280 281 281 281 281 280 280 281 282 281 281 280 281 282 283 284 283 282 281 281
307 308 310 308 309 313 311 307 309 313 315 317 315 310 311 313 311 310 310 309 306 306 309 309 309 310 310 309 309 310 307 304 302 300 299 300 303 304 302 299 297 296 295 294 293 292 292 292 292 291 291 290 288 286 285 283 282 281 281 280 280 280 279 279 279 279 279 280 280 280 280 279 279 279 280 280 279 279 279 280 281 282 282 281 281 281
308 308 309 309 309 310 310 308 311 317 316 312 311 309 307 308 308 307 309 312 310 306 306 308 308 307 308 307 306 307 306 303 300 297 296 296 298 298 296 295 295 293 293 293 292 292 291 291 291 290 289 287 285 284 283 282 281 281 280 280 280 279 279 279 279 279 279 278 279 279 279 278 278 278 279 279 278 278 278 279 280 280 280 280 280 280
305 309 309 307 307 310 313 314 313 311 310 312 312 310 307 309 311 310 310 316 317 309 304 307 308 306 308 310 307 305 306 307 304 299 294 293 294 294 293 293 292 292 292 291 291 291 290 290 289 287 286 285 284 283 282 281 281 281 280 280 280 280 279 279 279 278 278 278 278 278 277 277 276 277 278 277 277 277 277 277 278 278 278 279 279 279
301 307 308 307 310 310 309 311 312 310 313 319 317 310 306 309 314 314 308 311 319 313 304 305 311 312 316 318 313 307 307 309 310 304 295 292 292 291 291 291 290 291 290 290 291 290 289 288 286 286 285 284 283 282 281 281 281 281 280 280 280 280 279 279 278 278 278 277 277 276 276 276 275 276 276 276 276 276 276 276 276 277 277 277 277 278
300 305 306 306 311 310 307 310 313 313 316 319 315 311 308 308 311 313 310 312 320 315 305 306 314 320 323 321 314 309 308 311 313 305 294 291 291 289 289 289 289 289 290 290 290 289 288 286 285 284 284 283 283 282 281 281 281 281 280 280 280 279 279 279 278 278 277 277 276 276 275 274 274 275 275 275 275 275 275 275 275 275 275 276 276 276
300 305 306 304 308 309 309 311 311 310 312 313 313 314 312 308 308 309 312 318 319 310 305 309 315 319 322 318 312 310 311 314 313 302 291 289 288 286 287 287 287 288 288 289 290 289 287 286 284 284 284 283 283 282 281 281 281 281 280 280 279 279 278 278 278 277 276 276 275 275 274 273 273 274 274 274 274 274 274 274 274 274 274 275 275 274
301 303 304 303 306 307 307 309 308 308 311 313 314 316 312 307 306 307 312 318 317 310 307 311 316 317 318 316 314 312 308 303 300 294 288 286 285 284 284 284 284 285 286 288 289 288 286 285 284 283 283 282 282 281 281 281 281 281 280 279 279 278 278 277 277 276 276 275 274 273 273 272 272 273 273 273 273 272 273 273 273 273 273 274 273 273
305 304 303 302 304 306 306 307 307 309 311 312 312 311 307 306 309 313 312 309 311 312 310 312 316 315 312 311 308 304 297 291 290 288 285 284 283 282 282 282 282 283 284 285 286 285 283 282 281 281 280 280 280 280 279 280 280 280 279 278 278 277 277 276 275 275 274 273 272 272 272 271 271 272 272 272 271 271 272 272 272 272 272 272 272 272
307 307 306 303 304 306 306 304 307 311 310 307 306 306 305 307 314 317 310 304 306 311 311 311 311 306 304 303 297 293 292 289 287 285 283 282 282 281 281 282 281 281 282 282 283 283 282 280 279 279 279 278 278 278 278 278 279 279 278 277 276 276 275 274 274 273 273 272 271 271 270 270 270 271 271 271 270 271 271 271 271 271 271 271 271 271
305 308 313 309 305 308 309 305 307 314 311 305 305 308 307 306 309 311 310 306 305 307 308 310 307 300 298 297 293 291 290 287 284 283 282 282 282 282 282 282 281 281 281 281 281 281 280 280 279 278 278 277 277 277 277 278 278 278 277 276 275 274 273 273 272 271 271 270 270 270 269 269 269 270 270 270 270 270 270 270 270 270 270 270 270 270
306 307 313 314 309 309 310 307 307 311 310 305 306 308 306 303 301 304 311 313 307 303 303 306 304 297 294 293 292 291 290 286 283 283 283 282 282 281 281 281 280 280 280 281 281 280 279 278 278 277 277 276 277 277 277 277 277 277 276 274 273 272 272 271 270 270 269 269 268 268 268 268 268 269 269 268 269 269 269 269 269 269 269 269 269 269
307 304 305 311 311 307 306 306 304 306 310 309 305 301 301 301 298 300 308 312 304 298 297 299 298 294 293 293 292 291 289 286 284 283 282 281 281 280 280 279 279 279 279 280 280 279 277 276 276 276 276 276 275 276 276 276 276 275 273 272 272 271 270 269 268 268 268 267 267 267 267 267 268 268 268 268 268 268 268 268 268 268 268 268 268 268
307 304 303 306 309 308 307 307 304 304 309 310 304 299 297 295 293 294 299 300 295 292 293 294 294 292 292 293 292 290 288 285 283 283 281 280 279 279 279 278 277 277 278 278 278 277 275 274 274 275 275 275 275 275 276 275 274 273 272 271 271 270 269 268 267 267 266 266 266 266 266 267 267 267 267 267 266 266 266 266 267 267 267 267 268 268
307 304 304 305 306 306 306 306 304 304 305 301 300 301 299 293 289 289 289 289 288 289 289 290 291 292 293 291 290 288 285 284 282 282 281 280 280 279 278 277 277 276 276 277 277 276 274 273 273 274 274 274 274 275 275 274 273 272 271 270 270 269 268 267 266 265 265 265 265 265 266 266 266 266 265 265 265 265 265 265 266 266 266 267 267 267
305 303 305 307 305 304 304 304 303 304 304 300 296 296 294 290 287 286 286 286 286 286 287 286 287 289 289 288 286 285 283 282 282 281 281 280 280 279 279 278 277 276 275 275 276 276 274 272 272 273 273 273 273 274 274 273 271 271 270 269 268 267 266 266 265 264 264 264 264 264 265 265 264 264 264 264 264 264 264 264 265 265 265 266 266 265
304 304 305 305 305 305 304 305 305 304 305 307 299 292 290 288 286 285 285 285 285 285 285 285 285 284 284 284 284 283 282 282 281 281 281 281 280 280 279 278 277 276 275 274 275 275 274 272 271 271 272 272 272 273 273 271 270 269 269 268 267 265 264 264 263 263 263 263 263 263 264 263 263 263 263 263 263 263 263 263 263 264 264 264 263 262
302 303 304 304 304 304 304 307 307 305 307 308 296 289 288 287 286 285 285 284 284 284 284 284 284 283 283 283 283 283 282 282 282 282 281 281 280 280 279 278 278 276 275 274 274 274 274 273 271 271 271 271 271 272 272 270 269 268 267 266 265 263 263 263 262 262 262 262 262 263 263 262 262 262 262 262 262 262 261 261 261 262 262 261 261 261
Wind_Speed
3 5 3 2 3 3 4 3 3 1 3 5 4 2 3 3 4 5 2 4 2 2 5 4 4 9 12 12 10 7 3 5 7 7 7 7 5 6 5 5 5 5 6 4 5 5 4 4 4 6 7 7 7 6 7 7 8 8 8 9 8 7 8 9 9 9 9 10 10 10 10 10 9 8 8 7 8 9 10 11 10 10 10 10 10 9
5 6 1 5 6 5 3 2 1 1 3 3 4 2 3 3 5 4 1 4 5 3 4 3 6 11 10 10 9 4 3 5 7 7 7 8 6 6 6 6 6 5 4 3 5 5 5 6 6 6 6 6 6 5 6 6 6 7 7 8 8 7 8 9 9 9 10 10 10 11 11 11 11 10 8 8 7 8 10 10 10 10 10 10 10 10
6 3 4 5 4 2 2 2 1 2 3 3 3 2 2 3 4 5 2 5 6 3 4 5 7 11 10 8 8 3 4 5 5 7 7 6 6 6 6 6 6 5 4 3 4 4 5 7 7 7 7 7 7 6 6 7 6 6 7 8 8 8 9 9 10 10 11 10 11 12 13 13 13 12 10 10 9 8 9 9 10 10 10 10 10 10
3 1 4 2 2 2 3 4 4 3 3 3 2 2 3 3 3 3 3 6 5 1 4 5 5 7 8 6 6 3 3 4 4 4 6 5 6 6 6 5 5 5 5 5 5 4 3 6 8 9 8 8 8 8 8 8 8 8 7 8 8 9 9 10 10 10 11 11 11 12 13 14 14 14 12 12 10 9 9 9 9 10 10 10 10 10
3 2 1 3 5 4 0 4 5 4 2 2 2 3 2 2 1 4 4 7 6 1 1 4 4 4 5 5 6 5 3 4 5 3 5 5 4 4 5 4 4 5 6 5 5 5 4 5 7 8 8 8 9 9 9 8 8 8 8 9 9 10 10 10 10 10 11 11 12 13 14 14 15 15 14 13 11 9 10 10 10 10 11 11 11 10
3 2 1 4 5 4 2 2 2 4 1 3 2 4 3 2 2 3 5 6 4 3 1 4 4 3 5 4 5 5 6 5 5 4 5 6 6 5 5 5 5 4 5 5 5 6 6 6 7 8 8 9 10 9 8 8 8 9 9 10 10 11 11 11 11 11 11 12 13 13 14 15 15 16 15 13 12 12 12 12 12 12 12 12 12 11
1 2 3 4 3 5 4 1 1 4 3 1 2 4 4 3 2 2 5 4 2 1 3 3 4 2 5 5 6 5 6 7 6 5 6 6 5 5 5 5 5 5 5 5 6 6 7 7 8 9 9 9 9 8 7 8 9 9 10 10 11 12 11 11 11 11 12 13 14 14 15 16 17 18 17 15 14 15 14 14 15 14 13 14 14 14
1 3 5 5 5 5 3 1 2 4 3 2 2 4 4 3 2 2 3 3 1 3 4 5 4 1 3 5 7 5 4 7 7 6 7 6 6 6 5 6 6 6 6 5 6 6 8 9 9 9 9 8 9 9 8 9 10 10 11 12 12 12 12 11 11 11 12 14 14 15 16 17 18 19 19 18 17 16 16 16 16 15 15 15 15 15
1 2 2 3 4 2 1 2 3 4 1 3 2 3 2 3 3 3 4 2 2 1 3 6 4 2 4 6 6 4 2 4 6 4 5 6 5 6 6 6 6 7 6 6 6 6 8 9 9 8 8 8 8 9 10 11 11 12 13 13 13 12 12 11 11 12 13 14 15 16 17 18 19 19 20 20 19 18 18 18 17 16 16 15 15 15
1 1 2 3 2 1 3 3 2 3 0 2 2 3 3 4 3 3 4 2 3 3 2 6 4 2 4 5 4 3 2 2 3 2 4 5 6 5 5 6 6 6 5 5 5 6 7 7 6 7 8 9 9 10 11 12 12 13 14 14 13 12 12 12 11 13 14 14 15 16 17 19 20 20 20 21 22 21 20 20 19 18 17 16 15 14
2 1 2 3 1 2 2 1 1 2 1 0 3 4 4 4 3 3 3 2 3 2 3 5 3 1 2 5 3 2 2 5 5 2 4 4 3 3 3 5 5 5 5 4 4 6 6 5 5 6 7 9 9 9 9 9 10 11 12 13 13 12 12 12 13 14 15 14 14 15 17 19 20 21 21 22 24 23 23 23 22 21 20 19 17 16
4 2 0 0 1 2 2 1 1 2 2 2 3 3 2 3 3 3 4 4 3 2 4 4 4 1 1 4 5 4 5 5 6 5 5 5 3 3 3 4 4 4 4 4 4 5 6 6 5 7 8 10 11 10 11 11 10 10 10 10 11 11 12 13 14 16 16 14 14 15 16 18 20 21 22 23 24 25 24 24 24 23 23 22 20 19
3 1 2 2 0 2 2 0 2 4 4 4 3 3 2 2 3 1 3 2 1 3 2 2 3 1 4 6 6 6 6 6 7 7 7 7 6 5 3 3 4 4 4 3 3 4 5 5 6 8 9 11 12 12 12 11 11 11 11 11 11 12 12 13 14 15 14 14 13 14 15 17 19 20 21 23 24 25 24 25 25 25 24 24 23 22
2 2 2 1 1 1 3 1 2 2 2 2 2 3 2 2 3 1 4 2 2 3 1 2 3 2 3 4 5 7 7 6 7 6 6 7 7 6 4 4 5 5 3 3 2 3 3 4 6 8 10 11 13 13 12 11 11 12 12 12 13 13 13 13 14 14 14 14 13 13 14 15 16 18 19 21 22 23 24 24 24 25 25 25 25 25
1 2 1 1 1 1 2 2 1 1 0 1 3 3 2 3 3 2 3 2 2 3 3 3 2 3 1 1 4 7 6 4 3 3 3 3 4 3 3 3 4 2 1 2 2 3 3 5 7 9 11 12 14 14 14 14 14 14 14 14 15 16 16 17 18 17 17 17 16 15 14 14 15 16 18 19 20 21 22 23 24 24 25 25 26 26
1 3 2 1 1 3 1 2 1 2 0 2 2 3 2 2 4 2 2 4 2 2 3 2 3 4 1 3 5 3 2 2 3 3 1 0 2 2 2 2 2 1 1 2 3 3 4 6 8 9 11 13 14 16 16 16 17 16 16 16 17 17 18 19 20 20 20 20 20 19 18 18 18 18 18 19 19 20 21 22 22 23 24 24 25 25
0 2 2 3 2 2 2 2 1 0 1 0 1 0 1 3 5 4 1 0 3 1 3 1 2 5 3 2 5 5 1 2 3 3 1 1 2 4 3 1 2 1 1 1 1 2 3 6 7 9 11 13 14 15 15 16 16 16 16 17 18 19 20 21 21 22 22 23 23 23 22 21 21 21 21 21 21 20 20 21 21 22 22 22 23 24
2 2 2 1 0 1 1 2 1 1 2 1 1 2 2 2 4 3 1 3 4 1 4 2 2 5 2 1 4 2 2 5 5 3 2 1 1 3 2 3 3 3 4 3 2 2 2 4 6 9 11 12 13 13 14 14 15 15 16 18 20 21 22 22 22 23 24 25 25 25 24 23 23 23 23 23 23 23 23 23 23 23 23 22 22 22
1 1 4 1 2 2 2 2 1 2 1 1 1 1 1 2 1 2 2 1 2 1 4 4 4 3 3 3 3 4 7 8 6 4 2 3 3 3 4 5 5 5 5 3 2 2 3 4 6 8 10 11 11 12 13 13 14 16 18 19 20 21 21 20 21 22 23 24 24 24 24 24 24 24 25 25 25 26 27 27 26 26 25 25 24 24
1 0 3 2 2 1 3 1 1 2 1 2 2 2 2 2 3 1 1 2 1 1 3 4 4 3 5 5 5 8 9 9 7 5 5 6 6 6 5 5 6 6 6 3 0 2 3 4 6 7 9 10 11 12 13 14 16 18 19 20 21 21 21 21 21 22 23 23 23 23 24 25 26 26 27 27 28 28 29 29 28 28 28 28 27 26
2 1 3 3 2 1 1 1 3 4 2 1 1 1 1 0 2 1 1 1 3 2 2 1 3 5 6 4 6 7 7 8 8 7 7 7 6 6 6 6 6 6 6 4 2 2 2 3 6 8 10 12 14 15 15 17 18 19 20 21 22 23 24 24 24 24 24 24 24 25 26 26 26 27 27 27 28 28 28 28 28 28 28 28 28 28
1 2 2 2 2 2 3 3 3 4 3 3 3 2 3 2 2 2 2 2 2 2 3 3 3 7 6 3 5 5 5 7 9 8 8 7 7 6 6 6 6 6 6 4 3 4 2 3 7 10 12 15 17 18 18 18 19 21 22 23 24 25 26 25 25 25 25 25 26 26 27 27 27 27 27 27 28 28 28 27 27 26 26 27 28 27
1 3 1 3 3 3 3 2 2 3 2 3 2 1 2 3 4 5 2 3 1 1 1 3 1 7 6 3 5 5 4 6 7 7 7 6 6 6 6 6 6 6 5 4 3 3 0 5 8 11 14 16 18 19 20 20 21 22 23 24 25 26 26 25 24 24 24 25 26 27 27 27 27 27 28 28 29 29 28 28 27 26 27 27 27 26
1 3 1 3 3 3 4 2 2 1 2 1 2 2 2 2 2 5 4 3 2 2 2 2 2 6 6 4 4 4 3 2 4 5 6 5 5 5 6 7 6 6 4 2 2 1 4 8 11 13 15 16 18 19 20 22 22 23 23 23 24 25 24 23 22 23 23 25 27 28 28 28 28 28 29 29 30 30 29 29 28 28 28 28 29 28
1 1 2 2 4 6 6 5 3 2 1 2 3 2 2 3 4 3 1 3 0 5 6 5 4 7 5 5 4 2 3 2 2 3 4 5 5 5 5 5 5 5 4 2 2 4 7 10 12 13 14 16 17 19 21 23 23 23 23 23 22 22 22 22 22 23 24 25 26 28 28 28 28 28 29 29 29 29 29 29 29 30 30 30 31 31
1 2 3 3 1 2 2 3 3 2 2 2 2 2 3 4 6 3 2 3 2 4 5 6 6 6 6 5 3 2 2 3 6 5 3 5 5 6 5 5 5 5 3 1 3 5 6 9 11 12 14 16 18 20 21 22 23 23 23 22 21 21 22 22 23 24 25 26 27 28 28 28 28 28 28 28 28 28 28 29 29 30 30 31 31 32
2 1 2 5 6 6 6 6 4 3 2 2 3 3 4 5 5 5 4 3 5 3 3 7 6 4 11 7 4 5 5 5 6 6 5 6 6 6 6 5 5 4 2 1 3 5 7 8 9 11 14 16 19 21 22 22 22 22 22 22 22 22 23 24 24 25 27 27 28 29 29 29 29 29 29 29 29 29 29 29 30 30 30 31 31 32
4 2 3 6 6 7 7 6 3 2 3 6 5 5 6 6 5 6 6 6 5 5 5 8 6 5 14 9 6 6 6 5 7 7 6 6 6 5 6 5 5 2 2 4 6 7 7 7 7 10 14 16 19 21 21 22 22 22 23 23 23 24 24 25 26 27 28 29 30 30 29 29 29 29 30 30 30 31 31 31 31 31 31 32 32 32
4 3 4 4 5 7 5 5 3 3 4 5 6 8 8 7 9 11 12 8 8 7 9 5 7 9 14 10 5 6 6 6 9 8 6 6 5 5 5 5 5 2 4 7 7 7 7 6 7 10 14 16 18 19 20 22 22 22 23 24 25 25 25 26 28 29 30 31 32 31 30 30 30 30 31 31 32 32 32 31 31 32 32 33 33 32
4 3 3 3 4 7 6 5 4 5 4 5 9 11 8 9 13 14 12 9 9 11 14 7 4 10 14 12 11 8 6 7 8 6 5 6 5 4 5 6 6 3 4 7 7 7 7 7 9 12 15 16 17 18 19 22 23 24 24 24 26 26 26 27 30 31 32 32 32 31 31 31 31 31 32 32 32 32 32 31 31 32 33 34 33 32
2 3 1 3 3 8 5 2 2 4 5 6 11 11 8 10 12 11 10 7 6 12 15 9 8 15 12 7 8 9 4 3 5 6 6 6 5 3 5 7 5 3 5 7 7 7 6 7 11 14 16 17 18 18 20 22 24 25 25 26 27 28 28 30 32 32 32 32 31 31 32 32 32 32 32 32 32 32 32 31 30 31 33 34 34 33
2 1 1 4 1 6 4 4 3 1 1 6 13 14 13 11 9 8 8 8 10 12 9 3 6 12 9 3 3 6 4 2 5 7 6 5 4 3 6 6 4 5 7 7 7 7 7 8 11 14 16 18 19 20 21 23 25 26 26 27 27 27 29 30 31 31 31 31 31 32 33 33 32 32 32 32 32 32 32 31 30 31 33 35 34 32
3 3 1 3 1 6 5 3 3 5 4 7 11 12 14 13 10 7 6 9 13 11 7 6 9 9 3 3 3 5 5 5 6 5 5 6 5 4 4 4 6 8 8 7 7 8 8 10 14 16 18 19 20 21 22 24 26 25 25 25 26 27 29 30 30 30 30 31 31 32 32 32 31 31 31 31 31 32 32 32 31 31 32 33 33 32
4 5 3 3 2 5 7 4 4 4 3 7 7 6 7 9 13 12 10 11 13 10 6 6 7 5 2 4 6 7 6 4 3 4 5 5 3 3 4 6 8 8 8 8 8 9 10 13 16 19 20 20 21 22 23 25 25 24 24 25 26 28 29 30 30 30 30 30 29 29 29 30 30 30 29 30 31 32 32 32 31 30 31 32 33 32
4 5 2 2 2 3 4 3 4 5 8 8 6 4 4 5 10 12 11 11 12 13 12 9 9 10 8 7 8 7 2 3 6 7 8 5 2 7 9 8 8 8 8 8 8 9 12 15 17 19 20 20 21 23 23 24 24 25 26 26 27 29 29 29 29 29 28 28 28 28 28 29 29 28 28 28 30 31 31 31 31 30 30 32 32 31
6 5 2 2 2 1 0 2 3 7 9 9 8 3 3 2 4 4 8 11 11 15 14 12 14 14 9 8 7 3 5 6 7 8 9 9 6 7 9 8 7 8 8 8 10 12 14 17 19 20 20 21 22 23 23 23 23 25 26 26 27 27 27 27 27 26 26 26 27 27 27 27 28 27 26 26 28 29 29 30 29 29 29 30 30 30
5 5 2 2 3 3 2 3 4 7 10 11 8 4 4 4 6 5 4 9 8 10 12 13 14 12 9 9 6 3 7 6 6 6 7 8 8 8 10 10 9 10 12 14 16 17 19 21 22 22 22 23 23 22 21 21 22 24 24 24 25 24 24 25 25 24 24 25 25 25 26 26 27 26 25 25 26 27 28 27 27 27 28 28 29 29
2 3 4 4 3 3 2 3 5 4 6 7 6 5 3 5 7 7 2 6 6 7 11 12 10 9 8 7 3 4 7 4 2 1 3 6 5 7 11 12 13 15 15 17 19 20 22 23 23 23 23 23 21 19 19 20 21 22 22 22 23 23 22 23 22 22 23 23 24 25 25 26 27 26 24 25 26 27 27 27 26 26 27 27 27 28
4 2 4 4 2 2 4 3 4 4 7 7 6 6 4 4 6 5 2 6 7 6 9 10 9 9 7 4 4 7 7 3 5 4 3 3 3 6 9 10 14 17 17 19 20 21 22 23 23 23 22 21 19 17 17 18 19 20 19 18 19 21 21 21 21 21 22 22 23 24 26 26 26 26 24 24 26 26 27 28 27 27 27 26 27 28
3 3 2 3 4 3 4 4 4 5 6 7 6 6 4 3 4 6 3 8 7 3 7 9 8 7 6 6 6 6 6 5 5 5 7 6 6 9 10 11 13 16 17 18 20 21 21 22 22 22 21 19 17 15 15 16 17 18 17 16 18 21 20 20 20 20 20 21 23 24 26 26 26 25 23 23 25 26 26 27 26 27 28 27 27 29
0 1 1 4 5 5 5 5 5 5 7 8 7 6 5 3 2 1 6 7 3 3 6 7 6 4 5 7 6 4 2 1 5 10 9 8 9 10 12 14 16 17 17 17 18 20 20 20 20 20 18 17 15 14 14 14 15 16 16 17 19 20 18 17 18 19 19 22 23 24 26 26 26 25 23 23 25 25 25 26 26 26 27 27 28 30
3 2 1 3 3 3 5 4 4 6 8 9 6 4 4 3 3 6 7 4 4 6 5 4 4 4 5 4 4 5 6 7 10 12 9 8 8 9 11 14 16 17 18 17 18 19 19 19 19 18 17 15 15 15 14 14 15 15 15 17 18 17 16 16 18 18 19 22 24 25 26 26 26 25 23 24 25 25 26 26 26 26 26 27 28 29
6 5 3 4 4 3 2 2 3 6 7 7 9 4 3 6 6 5 3 1 2 5 4 3 3 4 5 6 6 8 11 10 10 10 9 8 9 10 12 13 14 15 15 16 16 17 16 17 17 16 16 15 15 15 17 17 16 14 15 16 15 15 16 17 19 20 21 24 25 25 25 26 25 24 23 25 26 25 26 26 26 26 26 26 28 29
6 6 4 4 4 5 4 5 6 6 6 8 9 4 5 4 3 3 5 2 0 3 4 3 2 3 6 10 11 11 11 11 10 10 10 9 8 10 11 13 13 13 13 14 14 15 15 14 13 14 15 16 16 15 16 17 16 14 15 14 14 17 19 20 22 24 24 25 26 25 25 25 24 23 23 24 25 25 25 26 26 25 25 26 27 28
8 7 5 4 5 5 6 8 7 4 4 5 3 1 2 1 3 1 6 4 1 3 3 4 3 4 7 12 13 11 10 11 10 10 10 9 8 10 11 12 12 12 12 12 13 13 13 13 12 12 12 14 16 15 15 15 16 15 14 14 16 21 22 23 25 25 24 24 23 23 24 24 23 23 23 24 24 24 25 25 25 25 25 25 26 26
5 3 3 2 3 5 6 6 5 4 5 4 1 2 1 1 2 1 4 4 2 3 2 3 5 6 8 11 12 10 10 11 11 9 10 10 9 10 12 12 12 11 11 11 11 11 11 11 12 12 11 13 15 15 15 15 16 15 14 14 18 21 23 25 26 24 22 22 21 21 22 23 23 23 23 23 22 22 23 23 24 24 25 26 26 25
3 3 3 2 3 4 5 5 6 6 5 4 3 2 2 2 2 2 3 4 3 3 3 4 5 7 7 8 11 13 11 11 12 10 10 10 9 11 12 12 12 11 10 11 11 11 12 13 12 12 12 12 13 14 14 14 14 14 14 15 19 21 24 26 25 22 21 21 20 21 21 21 22 22 22 22 22 21 21 22 22 24 25 26 26 26
2 4 5 6 6 6 6 4 2 1 1 2 2 2 2 2 2 3 4 4 5 5 4 4 5 6 6 7 10 13 12 10 11 11 10 9 9 11 12 12 12 11 11 11 12 11 14 16 13 11 11 11 12 12 12 12 12 12 13 16 19 22 26 27 23 21 20 20 19 20 20 20 21 21 22 22 22 22 22 22 23 24 24 23 23 24
3 4 4 4 5 7 9 4 2 1 3 2 3 3 4 5 5 6 5 5 6 6 6 7 6 6 8 9 10 12 12 10 10 11 11 9 9 11 13 13 12 11 10 11 12 11 13 16 14 11 10 10 10 10 10 10 10 11 13 17 20 24 26 24 20 19 20 19 19 20 20 20 21 21 22 24 24 23 21 21 21 22 22 21 20 22
4 5 3 2 4 9 10 7 7 5 8 6 6 6 6 7 8 9 8 6 7 7 7 8 8 8 10 10 9 10 11 10 10 12 11 10 11 13 13 13 12 11 10 10 10 10 11 13 13 11 9 8 8 9 9 7 8 11 14 17 21 24 24 21 18 18 19 19 19 20 19 21 22 21 22 23 23 23 23 21 18 17 18 19 20 21
9 10 7 7 11 13 11 8 10 8 8 4 7 9 7 7 8 9 9 8 7 7 7 8 9 8 9 8 9 10 11 11 13 13 11 11 12 13 13 12 12 11 9 9 9 8 8 9 10 9 8 7 7 8 7 5 7 11 14 17 21 23 22 18 16 18 18 18 18 18 19 20 21 21 21 21 21 21 23 23 21 18 16 16 18 20
Wind_Direction
73 64 53 155 195 235 242 206 171 168 132 127 121 133 208 231 274 265 262 303 337 328 273 238 265 281 286 289 293 290 238 210 243 257 260 258 261 265 266 272 266 255 257 233 182 177 189 203 208 215 224 236 248 260 271 279 286 290 292 291 298 304 296 298 301 300 299 296 298 304 309 315 323 329 331 330 326 323 324 326 327 329 330 328 330 337
63 78 130 215 204 213 235 231 221 162 112 106 126 163 257 227 256 262 222 313 356 21 282 331 329 292 287 292 301 307 189 210 231 229 247 249 245 257 253 256 260 261 275 246 204 201 200 207 211 224 237 246 257 266 270 279 289 288 287 290 299 304 296 299 304 299 297 297 296 299 305 312 315 320 321 320 322 318 316 320 322 325 330 328 327 328
42 89 221 232 211 196 15 30 106 133 92 80 121 156 260 252 275 296 336 332 360 21 279 346 343 297 295 295 303 316 192 236 241 215 222 222 229 252 247 246 262 272 273 256 240 229 218 219 218 229 241 249 263 269 268 273 283 286 287 293 300 303 300 303 302 299 300 301 297 296 299 303 306 310 308 308 312 312 313 317 317 322 327 327 328 327
59 241 233 222 72 69 15 24 89 109 68 73 113 146 240 293 344 301 316 333 331 254 258 321 324 292 306 316 315 317 230 276 302 241 227 210 214 236 243 242 237 239 237 240 262 276 253 223 220 232 243 252 261 266 271 274 280 288 293 297 303 304 303 304 301 298 301 300 294 292 294 296 299 302 303 304 305 304 308 315 317 322 324 324 328 328
83 286 262 67 53 82 45 2 74 116 4 344 153 146 214 301 313 250 293 331 327 293 264 332 344 307 326 345 312 313 324 317 343 323 261 258 259 266 290 280 239 225 215 215 246 267 258 226 224 238 245 253 260 266 276 281 284 291 298 302 303 304 304 303 301 297 295 292 290 289 290 291 294 298 303 305 308 306 305 311 317 319 320 321 325 327
71 309 7 61 41 65 107 349 59 144 211 304 216 168 169 196 232 289 330 349 8 35 350 19 39 302 317 341 287 308 351 324 330 331 272 280 308 309 299 289 278 262 231 214 228 250 253 231 226 238 242 250 260 271 283 288 291 294 299 303 302 304 306 304 301 295 289 287 287 286 286 289 293 297 305 310 314 315 312 311 312 315 317 317 320 323
69 6 45 83 75 60 65 336 234 146 131 292 219 166 138 125 121 4 7 24 49 344 313 40 92 250 320 332 280 306 338 315 321 323 291 292 304 295 272 266 276 271 255 243 244 253 250 232 225 235 243 250 263 280 290 289 292 296 302 306 305 306 308 309 305 296 290 287 287 286 285 289 291 291 301 311 313 312 311 309 308 311 313 313 316 319
73 29 36 58 72 64 50 320 210 139 128 253 189 127 109 91 95 72 53 51 293 277 321 12 84 141 306 285 275 306 336 328 335 324 308 302 286 282 270 260 257 252 246 240 246 253 244 236 237 244 253 259 270 285 289 289 297 300 304 307 306 308 312 314 313 304 297 293 290 290 287 288 289 288 296 307 308 306 306 304 306 308 309 310 311 312
72 40 27 62 60 60 223 236 187 144 136 260 190 124 107 110 131 120 76 25 307 333 322 330 18 90 266 277 305 351 49 345 340 342 335 327 304 286 271 263 257 252 247 230 231 243 241 241 248 260 271 277 280 287 288 292 298 301 303 306 305 310 317 320 321 317 310 302 296 292 288 289 292 294 298 304 305 306 306 305 306 307 308 308 306 305
110 212 182 124 85 267 239 244 195 150 289 262 147 90 57 73 87 80 71 43 7 49 240 292 352 56 271 287 323 24 83 242 273 316 326 312 304 288 272 272 267 264 263 246 243 260 265 264 269 278 283 289 296 298 297 299 301 302 303 303 305 313 322 323 328 327 323 315 302 295 292 292 297 301 303 305 307 310 311 308 310 311 310 309 307 303
327 273 168 115 145 209 184 218 194 155 242 254 80 54 40 39 54 64 46 67 59 10 251 275 335 48 300 287 245 185 180 187 190 244 280 286 306 303 290 288 277 278 287 286 286 291 298 301 300 303 307 319 332 333 332 333 328 323 316 309 310 318 326 328 331 331 330 326 312 304 300 297 300 305 306 307 310 315 316 314 315 315 313 311 309 307
346 18 225 243 193 146 106 87 14 26 24 68 64 54 50 354 21 38 355 34 86 266 263 282 315 61 204 263 237 236 250 196 168 180 199 214 240 264 298 308 304 306 314 327 328 317 335 352 351 354 355 358 5 6 8 8 3 358 349 337 333 335 337 334 332 332 333 334 327 319 313 307 306 307 306 306 309 314 317 317 318 317 316 315 313 311
323 283 289 315 219 130 107 75 346 9 37 63 63 62 64 344 2 7 313 358 165 247 267 310 327 295 226 244 238 245 252 218 196 187 176 186 208 228 262 303 318 321 323 333 338 329 341 355 358 4 8 11 16 18 19 17 12 12 9 1 355 352 348 342 340 342 343 345 342 334 324 318 315 311 308 307 308 313 315 315 316 317 317 317 316 314
320 279 312 338 269 125 118 154 320 339 30 64 107 97 86 64 50 307 281 311 278 262 283 321 322 283 268 266 231 230 240 227 218 214 193 183 187 203 230 281 305 312 321 317 332 349 344 356 9 15 18 22 28 31 30 28 23 22 21 16 12 11 10 8 8 8 7 6 0 350 340 333 328 323 318 315 313 315 316 316 316 316 316 316 316 317
153 266 251 181 220 101 131 198 178 169 295 253 180 137 114 136 136 226 243 215 260 278 300 317 293 196 191 304 236 232 253 267 259 255 240 211 205 214 248 301 310 318 9 358 11 12 2 21 29 31 36 38 41 44 45 44 42 40 39 35 32 31 30 29 28 27 24 22 18 12 5 357 349 342 336 331 327 325 324 322 320 318 319 318 317 318
152 242 247 299 221 123 158 245 124 108 253 234 175 97 59 148 134 134 188 185 195 315 306 286 227 219 203 296 295 305 292 304 337 340 10 302 311 25 47 337 319 314 17 38 43 22 18 40 45 42 45 48 50 53 53 51 50 49 47 45 42 39 36 34 33 32 30 27 24 22 18 12 6 359 353 347 344 341 336 332 329 326 326 324 323 324
108 264 288 348 355 125 171 225 98 115 225 203 96 100 227 152 119 110 189 291 71 60 283 270 259 298 342 292 312 7 31 275 318 331 345 294 327 57 75 283 260 234 293 342 3 356 16 42 51 49 50 52 54 55 56 54 52 50 47 45 42 40 37 35 34 32 29 26 23 21 19 16 13 9 5 0 357 354 350 347 343 339 337 335 333 331
150 265 282 53 120 246 190 138 78 238 184 102 110 217 223 128 100 103 106 360 38 40 281 326 290 294 348 259 308 19 192 243 263 270 307 338 65 93 134 225 220 237 275 289 305 339 16 44 52 55 55 56 55 56 58 57 55 53 49 44 40 36 34 34 33 30 25 21 20 20 21 20 17 15 13 10 8 7 4 2 360 355 351 350 346 341
132 285 294 213 174 304 9 79 340 289 146 125 196 205 91 137 125 47 90 48 23 318 292 314 306 264 204 222 255 210 201 215 232 231 150 137 156 168 204 225 239 259 269 276 352 360 5 41 49 54 59 60 60 59 57 57 56 54 49 44 41 39 38 37 33 27 22 19 20 23 24 24 23 22 21 19 17 16 14 11 8 4 1 359 357 352
90 84 288 263 188 333 15 69 244 253 48 28 360 345 357 155 165 116 91 154 164 239 278 313 330 282 230 215 194 208 209 191 191 189 168 181 200 205 209 221 238 246 246 242 102 326 332 37 54 59 63 61 60 58 58 61 59 54 49 46 45 43 40 38 33 29 29 28 28 29 29 29 28 27 26 25 23 21 20 17 13 9 6 5 4 0
49 95 259 294 315 292 274 221 198 183 167 87 49 325 303 140 151 160 354 91 130 154 190 263 314 273 250 211 181 211 220 191 181 175 180 204 215 219 224 219 223 232 238 241 226 259 298 57 71 70 71 68 65 65 68 68 61 55 51 47 43 40 38 37 36 36 39 39 38 37 36 33 31 29 28 26 25 23 20 18 16 12 8 7 7 5
78 142 206 292 306 233 245 251 191 170 172 163 165 194 182 147 124 119 320 321 98 137 172 156 271 271 259 213 197 225 225 201 191 172 177 208 217 225 236 223 218 226 228 226 226 238 253 69 69 72 76 72 70 72 73 67 59 54 49 44 41 40 40 40 41 43 43 43 42 40 37 34 31 28 25 24 22 20 18 16 14 10 7 7 7 7
150 102 122 259 245 228 269 281 155 155 152 146 180 216 145 129 122 123 214 261 124 99 147 117 254 268 265 235 223 252 246 200 190 174 173 203 223 229 242 245 241 237 228 224 234 242 102 68 73 79 79 74 73 74 71 63 58 52 46 42 42 42 43 45 45 45 44 42 41 37 34 32 29 26 24 23 21 19 18 16 14 13 10 9 9 9
100 84 59 289 297 314 328 358 97 98 76 142 243 222 149 163 141 140 173 184 146 180 157 92 278 265 277 282 258 273 282 176 185 189 180 207 254 257 253 258 252 247 260 278 278 326 62 78 85 85 79 74 73 71 67 63 58 52 47 44 45 46 48 48 47 44 41 39 36 34 32 31 29 28 27 26 24 22 21 20 19 18 15 13 13 12
277 140 94 14 345 342 347 354 345 333 240 229 240 209 183 146 111 121 139 82 279 223 158 136 246 253 274 310 324 355 39 51 265 240 197 215 254 263 262 265 253 252 278 306 351 33 63 80 86 85 77 72 71 68 66 63 59 57 53 49 49 51 52 51 48 43 39 36 34 33 34 33 32 31 30 29 27 25 25 23 22 22 20 18 17 16
230 191 128 119 158 266 277 275 270 252 236 244 216 195 204 165 139 152 115 91 243 236 154 165 229 260 280 299 319 316 2 329 294 288 261 240 248 259 263 262 252 248 257 303 20 46 74 86 86 84 76 71 70 69 66 63 61 62 59 56 55 56 54 50 45 42 40 39 37 35 34 32 30 30 29 29 28 27 27 26 25 25 24 22 20 19
102 212 197 164 182 200 199 216 220 161 145 220 221 208 200 186 152 123 113 166 199 176 193 215 206 281 285 263 198 243 278 291 283 290 292 275 269 269 261 255 250 242 248 18 57 83 93 90 85 81 76 73 73 71 68 65 63 62 60 60 60 57 53 48 45 44 42 40 38 35 31 29 27 26 26 25 25 25 25 25 25 24 23 22 21 20
89 282 232 183 216 225 197 208 214 146 201 222 224 223 204 184 154 152 186 205 156 131 252 243 182 229 270 253 182 216 260 286 281 280 280 277 272 265 263 264 254 234 56 61 89 104 103 95 87 79 74 74 75 74 71 69 66 65 64 61 58 53 50 47 46 45 42 39 37 33 29 28 26 25 24 23 22 22 22 22 21 21 20 19 19 18
123 243 229 184 254 264 226 227 218 188 232 235 227 229 211 181 179 197 214 201 157 187 248 237 162 208 256 268 243 218 217 249 267 266 266 273 271 258 257 251 231 196 80 82 95 102 105 105 91 79 73 74 76 74 71 70 68 68 65 59 54 51 48 46 46 44 41 38 35 31 28 27 25 24 23 22 21 21 20 19 19 18 17 16 16 15
153 229 220 164 286 288 264 248 213 200 244 266 251 239 213 199 205 212 224 210 191 232 254 250 235 254 260 266 271 261 228 237 266 281 279 271 259 239 227 221 215 191 88 94 102 101 105 101 87 79 75 72 72 70 69 69 68 65 60 54 50 48 45 45 45 42 39 36 32 29 27 25 24 23 21 20 19 18 17 17 17 16 15 14 14 13
209 246 193 106 330 293 290 348 118 184 214 249 265 256 222 219 226 226 232 221 206 245 258 260 274 277 268 242 255 272 263 238 267 277 272 264 255 219 197 204 206 147 97 101 106 101 95 86 79 75 70 66 66 68 70 70 66 61 55 50 48 46 44 45 44 41 39 35 31 29 27 25 23 21 19 18 16 15 14 14 14 13 12 11 10 10
180 235 35 74 12 282 308 28 28 11 229 257 270 261 233 219 220 218 216 201 198 220 236 228 245 260 262 195 217 272 289 253 247 255 268 280 272 214 192 193 168 116 108 109 104 93 84 76 72 70 65 64 66 69 72 70 65 59 54 51 49 47 47 46 45 42 39 35 32 29 27 24 23 21 19 16 13 12 12 11 11 10 8 7 7 6
153 150 141 115 180 270 301 358 15 19 357 279 261 245 225 212 212 228 235 213 205 198 188 200 221 235 236 137 178 253 262 249 251 256 271 282 268 228 194 146 116 106 104 101 93 85 79 74 71 70 69 71 74 75 74 71 68 62 58 56 53 51 50 47 45 42 39 35 32 29 26 24 22 20 18 15 12 10 11 10 9 7 4 3 3 2
140 130 161 164 175 267 286 323 4 5 294 258 241 203 191 191 198 214 232 222 204 189 199 237 249 249 232 189 207 232 241 251 306 315 298 282 233 175 122 101 103 100 91 86 82 80 81 80 78 77 79 82 83 81 77 74 71 67 62 59 55 52 49 46 44 41 37 34 31 27 24 21 20 19 16 12 10 9 9 8 6 3 1 359 359 359
145 132 167 180 150 245 288 355 348 270 239 251 270 219 181 171 179 200 238 240 207 205 228 253 260 252 244 231 230 234 212 78 49 17 353 349 121 130 110 97 96 95 91 88 86 85 86 87 86 84 84 85 83 80 77 73 69 65 61 57 54 51 48 45 43 39 35 32 29 25 22 18 17 16 13 9 8 7 7 5 3 0 357 356 356 356
156 152 156 157 158 206 306 130 213 252 261 279 289 240 158 127 140 184 270 264 216 203 214 227 242 250 252 252 252 215 126 108 73 37 14 21 53 94 102 102 97 94 94 94 93 92 90 90 90 89 88 85 81 78 74 70 66 63 59 55 53 50 47 44 41 37 33 30 26 23 20 17 14 13 10 7 5 5 4 2 360 357 354 353 352 352
144 147 156 213 206 184 180 220 255 301 304 289 272 215 167 176 167 161 252 268 231 195 193 208 233 248 251 259 269 134 136 123 67 36 16 26 45 69 84 90 90 92 93 92 92 93 92 91 90 89 87 83 77 74 72 68 63 60 57 53 50 47 45 42 37 33 30 28 25 22 18 15 12 10 8 5 4 2 0 358 357 354 352 350 349 349
112 162 172 196 223 131 127 278 297 307 286 267 256 257 241 198 174 154 177 278 262 204 189 195 214 230 236 249 250 134 133 113 84 91 32 30 45 70 78 81 84 88 91 93 94 93 92 91 89 86 84 80 74 70 69 66 62 60 56 51 47 45 42 38 33 29 27 24 22 19 15 12 10 8 5 3 1 359 356 355 354 351 350 349 346 345
45 32 118 158 234 115 139 223 235 222 245 246 247 278 284 183 152 105 43 291 269 212 183 180 196 218 220 197 152 137 134 161 225 201 115 71 62 77 84 86 84 85 89 93 95 96 94 90 86 83 79 76 72 69 67 64 62 60 57 51 46 43 39 33 27 24 23 21 18 14 11 9 7 6 4 1 358 356 354 352 350 348 347 346 344 342
48 18 83 178 222 183 164 219 235 228 251 254 242 259 266 180 114 67 347 274 264 205 169 169 188 215 195 154 143 144 160 207 219 162 130 120 94 82 85 88 86 86 89 91 95 99 97 90 84 80 75 72 70 68 66 64 62 61 58 52 46 42 36 28 23 21 19 17 13 10 7 5 4 4 2 358 355 354 351 350 347 346 345 344 342 341
84 293 156 183 213 206 197 239 268 254 249 249 233 217 196 151 86 125 229 240 225 175 181 174 177 188 156 151 162 163 170 167 121 123 128 122 103 89 86 88 87 85 86 90 96 99 94 87 83 79 74 71 68 64 61 60 61 62 60 54 47 40 33 25 20 19 16 12 9 5 3 2 1 1 359 355 353 350 348 348 346 344 344 342 340 341
166 188 181 161 181 196 196 228 286 286 253 227 198 168 152 158 215 222 216 208 162 168 182 162 144 139 120 117 131 127 114 100 105 114 118 115 110 104 96 93 88 84 85 89 94 96 93 86 81 77 72 68 63 59 59 61 63 64 59 53 46 37 29 23 19 16 11 6 4 2 359 359 359 359 356 352 351 349 346 347 346 343 343 341 340 340
168 166 199 193 181 159 141 189 271 283 254 185 141 125 183 195 213 211 175 106 158 154 136 111 136 155 133 107 105 120 121 114 111 113 114 114 111 108 104 98 91 87 85 84 86 92 95 90 81 75 69 66 60 56 57 63 68 68 61 54 44 33 26 20 15 12 6 2 1 359 357 357 356 356 353 350 349 347 344 344 344 343 342 342 340 338
185 173 193 214 189 151 155 200 216 232 222 172 146 166 211 209 226 184 144 112 354 148 134 134 180 193 157 135 129 131 125 120 123 123 118 117 115 110 105 98 93 90 85 82 84 89 89 86 82 76 68 64 62 56 54 62 71 70 63 53 36 24 20 14 8 6 2 359 358 356 354 354 354 352 350 348 348 346 343 343 343 342 342 342 340 337
214 191 179 195 197 183 196 214 218 230 230 201 170 181 212 267 330 173 144 129 180 203 173 157 159 163 149 137 131 132 131 130 133 131 123 120 115 108 103 96 92 90 87 86 86 85 84 82 83 81 70 63 64 60 55 64 74 71 63 47 27 18 14 7 3 2 360 357 356 354 352 351 351 350 348 348 348 346 343 342 341 340 341 340 338 336
239 193 147 171 228 255 250 220 205 237 248 221 142 60 168 269 340 114 128 125 173 207 169 154 157 150 146 140 131 130 137 137 133 127 122 121 116 110 107 100 93 90 89 88 87 85 84 80 77 77 72 62 59 58 59 67 73 69 57 36 19 13 8 4 3 1 359 356 353 352 351 349 348 348 347 347 347 345 343 342 340 339 340 339 338 337
269 184 181 227 230 246 257 227 202 225 231 185 144 109 90 44 25 74 120 129 143 140 109 121 137 137 140 140 131 131 137 135 130 128 125 122 121 117 110 101 95 91 86 88 91 86 77 72 67 63 62 57 50 50 60 68 66 58 44 23 13 7 3 2 3 0 357 356 352 350 351 349 346 345 345 345 346 344 343 343 342 339 339 339 339 339
237 172 191 223 216 219 247 245 174 240 305 103 159 201 145 118 78 75 95 113 115 108 93 89 108 128 130 127 127 129 131 131 131 131 130 128 127 123 116 107 101 94 87 91 97 87 72 67 64 56 54 51 44 45 59 67 56 40 25 14 8 3 359 360 1 359 357 355 351 349 350 347 344 343 343 343 344 344 342 342 341 339 338 339 342 345
160 168 179 207 222 249 261 241 124 311 278 223 209 206 162 153 140 115 113 122 116 110 101 82 72 93 113 124 131 127 124 129 132 131 130 131 130 127 124 118 108 96 87 88 93 90 75 65 62 59 53 48 46 50 62 67 49 26 14 8 3 359 358 359 360 359 357 354 351 350 348 345 345 344 342 340 340 340 339 339 339 338 337 338 344 347
167 196 181 174 226 250 251 210 164 213 250 228 196 187 169 156 147 136 135 136 128 127 123 106 84 77 90 106 122 124 122 126 129 128 127 126 128 129 129 127 118 104 90 85 89 93 82 65 60 59 52 46 52 58 65 67 44 19 8 3 359 359 1 3 1 357 355 352 350 349 346 344 343 342 340 338 337 336 335 336 339 341 341 340 340 341
200 208 186 197 231 244 243 205 179 208 243 221 168 168 165 155 148 143 143 144 140 139 134 122 113 103 90 85 97 114 123 127 129 129 125 122 127 129 128 130 126 111 95 84 80 83 81 69 60 55 47 43 51 59 70 72 37 14 3 359 359 0 5 8 3 355 352 351 349 347 345 343 341 340 338 338 337 336 335 335 337 341 344 345 343 341